Location: Geçitköy
(36.7327°N, 29.8010°E)
Time: 21:51:38
(UTC+00:00)

Daily predictions for brighter satellites

Satellite Brightness Start Highest point End
(mag) Time Altitude Azimuth Time Altitude Azimuth Time Altitude Azimuth
NOSS 3-2 (A) 4.5 15:16:22 10° NW 15:24:13 82° WSW 15:33:24 10° SSE
Cosmos 1656 Rocket 4.0 15:21:54 10° NNW 15:27:26 75° WSW 15:32:51 10° SSE
Cosmos 1190 Rocket 4.2 15:24:57 10° N 15:29:59 50° ENE 15:35:01 10° SE
SL-4 R/B 3.1 15:32:45 10° NNW 15:36:02 24° NNE 15:39:14 10° E
COSMO-SKYMED 1 3.7 15:35:13 10° NE 15:38:24 21° E 15:41:34 10° SE
Cosmos 304 Rocket 3.7 15:36:40 10° NNW 15:41:24 64° ENE 15:46:05 10° SSE
SL-16 R/B 4.0 15:36:09 10° N 15:41:41 36° WNW 15:47:11 10° SW
Cosmos 2181 Rocket 4.5 15:36:59 10° SSE 15:42:29 36° E 15:48:02 10° NNE
Cosmos 676 Rocket 4.4 15:38:43 10° N 15:43:35 40° ENE 15:48:27 10° SE
Cosmos 1515 Rocket 4.3 15:41:29 10° SSE 15:45:19 31° E 15:49:13 10° NNE
Cosmos 1953 3.2 15:43:40 10° NNE 15:46:44 24° ENE 15:49:45 10° SE
NOSS 3-4 (A) 3.3 15:43:15 10° SSW 15:48:16 51° ESE 15:53:34 10° NE
NOSS 3-4 (C) 3.3 15:43:23 10° S 15:48:24 51° ESE 15:53:43 10° NE
Cosmos 2369 Rocket 2.2 15:44:46 10° NNW 15:50:30 82° ENE 15:56:10 10° SSE
RESURS DK-1 4.2 15:49:26 10° SE 15:51:01 12° ESE 15:51:54 11° E
YAOGAN 1 3.5 15:47:37 10° SE 15:51:06 25° ENE 15:54:36 10° NNE
Cosmos 1943 3.3 15:46:07 10° SSW 15:51:44 81° WNW 15:57:24 10° NNE
NOSS 3-2 (C) 4.2 15:44:40 10° NNW 15:52:26 73° ENE 16:01:34 10° SE
Cosmos 1452 Rocket 4.3 15:48:19 10° SSE 15:52:49 30° E 15:57:22 10° NE
Landsat 7 4.3 15:51:31 10° S 15:56:07 64° W 16:00:44 10° NNW
Cosmos 2297 3.7 15:50:40 10° NNW 15:56:20 86° ENE 16:02:00 10° SSE
Cosmos 1241 Rocket 4.4 15:52:53 10° NNW 15:59:06 80° ENE 16:05:21 10° SSE
SMAP 4.3 15:57:36 10° S 16:02:02 45° W 16:06:31 10° NNW
Cosmos 2263 4.1 15:56:46 10° NNW 16:02:29 77° ENE 16:08:05 10° SSE
Helios 1A Rocket 4.1 16:02:31 16° E 16:02:34 16° E 16:04:40 10° SE
Meteor 1-23 Rocket 4.2 16:00:18 10° S 16:05:57 70° E 16:11:35 10° NNE
Dummy Sat-01 4.4 16:03:16 10° N 16:06:54 72° E 16:10:29 10° S
SJ 16-02 1.6 16:04:06 10° NNW 16:08:21 70° WSW 16:12:35 10° S
Spot 4 Rocket 4.4 16:04:26 10° SE 16:09:10 40° ENE 16:13:55 10° N
H-2A R/B 4.4 16:06:09 10° SW 16:09:14 20° S 16:16:47 10° SE
SL-16 R/B 4.4 16:06:02 10° WSW 16:10:13 21° NW 16:14:25 10° N
Cosmos 2218 Rocket 4.0 16:04:21 10° N 16:10:45 66° E 16:17:04 10° SSE
Cosmos 2366 rocket 4.0 16:04:32 10° N 16:10:53 72° E 16:17:12 10° SSE
Cosmos 1470 Rocket 3.5 16:07:11 10° N 16:11:27 60° E 16:15:43 10° SSE
USA 276 1.3 16:11:59 10° SW 16:14:16 87° SE 16:15:03 38° NE
Cosmos 2251 Rocket 4.4 16:09:17 10° NNW 16:14:22 52° WSW 16:19:24 10° S
Meteor 1-21 4.1 16:08:58 10° S 16:14:34 75° E 16:20:10 10° NNE
PSLV R/B 4.0 16:12:24 10° SE 16:16:07 34° ENE 16:19:52 10° N
Cosmos 1933 Rocket 4.2 16:15:37 10° NNE 16:19:32 31° ENE 16:23:24 10° SE
Cosmos 1703 3.0 16:17:05 10° SSW 16:20:23 74° W 16:23:41 10° N
Aurora 2 Rocket 4.5 16:20:11 10° S 16:21:08 11° S 16:22:07 10° SSE
Cosmos 2341 Rocket 4.1 16:15:13 10° N 16:21:34 86° W 16:27:49 10° S
DNEPR-1 R/B 3.5 16:19:56 10° SSW 16:24:39 76° ESE 16:27:21 22° NE
NOAA 15 4.5 16:23:11 10° SSE 16:28:24 76° ENE 16:33:37 10° N
USA 215 3.5 16:23:24 13° NE 16:29:11 65° NW 16:35:38 10° WSW
Okean 3 3.8 16:26:42 10° SSE 16:30:29 38° E 16:31:12 35° ENE
ARIANE 5 R/B 4.1 16:26:07 10° SSW 16:30:57 39° W 16:35:50 10° NNW
ATLAS 5 CENTAUR R/B 3.4 16:29:42 10° WNW 16:31:13 13° NW 16:32:46 10° NNW
Nadezhda 3 Rocket 4.1 16:27:58 10° SSE 16:33:50 50° E 16:39:44 10° NNE
Meteor 1-16 Rocket 4.0 16:28:58 10° N 16:34:16 67° E 16:39:36 10° SSE
BREEZE-M DEB (TANK) 3.7 16:35:09 10° NW 16:38:44 55° NE 16:53:46 10° ESE
Meteor 2-13 Rocket 4.5 16:35:35 10° S 16:41:44 86° W 16:47:56 10° N
SJ-7 4.1 16:41:53 10° SSE 16:45:40 86° WSW 16:49:28 10° NNW
OAO 3 Rocket 4.0 16:41:47 10° W 16:46:24 45° SSW 16:48:49 25° SE
Resurs 1-3 3.8 16:43:16 10° S 16:47:31 67° WSW 16:51:49 10° NNW
ISS -2.6 16:49:05 10° WSW 16:52:11 35° NW 16:52:26 35° NNW
CARTOSAT-1 3.3 16:51:14 10° SSE 16:55:26 79° ENE 16:59:39 10° N
USA 267 3.7 16:58:51 37° NE 16:59:51 39° NNE 17:05:49 10° NNW
USA 238 DEB 3.9 16:55:26 10° NNW 17:03:01 68° NE 17:08:51 21° SE
USA 238 3.9 16:55:33 10° NNW 17:03:08 67° NE 17:08:46 22° SE
OAO 2 Rocket 4.4 17:01:35 10° W 17:06:04 37° SSW 17:07:40 29° SSE
Cosmos 1741 Rocket 3.9 17:06:43 10° NNW 17:11:57 89° WSW 17:16:15 15° SSE
Cosmos 968 Rocket 4.0 17:07:39 10° NNW 17:12:41 57° WSW 17:17:38 10° S
Resurs 01 Rocket 3.4 17:08:32 10° SSE 17:15:52 20° NNW 17:17:16 10° NNW
SL-4 R/B 2.7 17:10:03 10° WNW 17:13:32 48° WSW 17:13:32 48° WSW
Cosmos 1302 Rocket 4.2 17:15:19 10° SSW 17:20:31 71° WNW 17:21:46 51° N
Cosmos 1850 Rocket 4.2 17:15:54 10° NNW 17:21:10 68° WSW 17:26:26 10° S
Cosmos 1833 Rocket 3.5 17:20:01 10° S 17:23:29 37° SSE 17:23:29 37° SSE
RESURS DK-1 3.6 17:24:10 10° SW 17:27:15 38° W 17:27:15 38° W
Cosmos 909 Rocket 4.5 17:20:25 10° S 17:28:36 57° ESE 17:28:36 57° ESE
BREEZE M DEB (TANK) 3.9 17:26:55 10° WNW 17:29:58 54° SW 17:30:41 49° S
CZ-3 Stage 3 3.1 17:28:41 10° WSW 17:36:52 36° S 17:36:52 36° S
